Location: Ajisawe
(8.4333°N, 4.3833°E)
Time: 21:12:28
(UTC+00:00)

Vanguard 2 Rocket - Pass Details

Date: 24 April 2021
Orbit: 554 x 3326 km, 32.9° (Epoch: 16 May)

Event Time Altitude Azimuth Distance (km) Brightness Sun altitude
Rises 19:43:58 0° 300° (WNW) 7,013 12.7 -27.4°
Reaches altitude 10° 19:49:10 10° 298° (WNW) 5,715 11.9 -28.6°
Maximum altitude 20:05:06 67° 219° (SW) 2,088 8.6 -32.3°
Enters shadow 20:07:58 52° 163° (SSE) 2,108 8.3 -33.0°
Drops below altitude 10° 20:14:02 10° 138° (SE) 3,375 - -34.4°
Sets 20:16:21 0° 134° (SE) 4,073 - -34.9°
